DW6083 Weather Reports


Display with metric or nautical units.
time (UTC)temp
F
wind
direction
speed
MPH
gust
MPH
rain 1hr
in
rain 24hr
in
rain mn
in
humidity
%
barometer
mb
20260504140111 62 260 0.0 0.0 0.00 0.00 0.00 42 1017.9
20260504081515 0 257 0.0 0.0 0.00 0.00 0.00 1017.1
20260504050018 0 257 0.0 0.0 0.00 0.00 0.00 1017.6
20260504044532 0 257 0.0 0.0 0.00 0.00 0.00 1017.7
20260504043008 0 257 0.0 0.0 0.00 0.00 0.00 1017.5
20260504041504 0 257 0.0 0.0 0.00 0.00 0.00 1017.5
20260504040107 0 257 0.0 0.0 0.00 0.00 0.00 1017.6
20260504034602 48 257 0.0 0.0 0.00 0.00 0.00 1 1017.6
20260504033056 48 257 0.0 0.0 0.00 0.00 0.00 1 1017.5
20260504031548 49 257 0.0 0.0 0.00 0.00 0.00 1 1017.5
20260504030041 50 257 0.0 0.0 0.00 0.00 0.00 1 1017.4
20260504024544 50 257 0.0 0.0 0.00 0.00 0.00 1 1017.4
20260504023036 51 257 0.0 0.0 0.00 0.00 0.00 1 1017.1
20260504021535 52 257 0.0 0.0 0.00 0.00 0.00 8 1017.1
20260504020031 53 257 0.0 0.0 0.00 0.00 0.00 16 1017.0
20260504014522 55 257 0.0 0.0 0.00 0.00 0.00 22 1016.8
20260504013027 56 257 0.0 0.0 0.00 0.00 0.00 30 1016.6
20260504011513 57 257 0.0 0.0 0.00 0.00 0.00 34 1016.4
20260504010009 59 257 0.0 0.0 0.00 0.00 0.00 48 1016.3
20260504004507 60 257 0.0 0.0 0.00 0.00 0.00 54 1016.1
20260504003100 61 257 0.0 0.0 0.00 0.00 0.00 57 1016.0
20260504001611 63 257 0.0 0.0 0.00 0.00 0.00 58 1016.0
20260504000050 65 257 0.0 0.0 0.00 0.00 0.00 60 1016.2
20260503234546 66 257 0.0 0.0 0.00 0.00 0.00 57 1016.1
20260503233041 67 257 0.0 0.0 0.00 0.00 0.00 48 1016.1
20260503231538 0 257 0.0 0.0 0.00 0.00 0.00 1016.3
20260503230032 0 257 0.0 0.0 0.00 0.00 0.00 1016.3
20260503224528 0 265 0.0 0.0 0.00 0.00 0.00 1016.5
20260503223025 0 256 0.0 0.0 0.00 0.00 0.00 1016.4
20260503221529 0 256 0.0 0.0 0.00 0.00 0.00 1016.5
20260503220017 0 227 0.0 0.0 0.00 0.00 0.00 1016.4
20260503214510 0 227 0.0 0.0 0.00 0.00 0.00 1016.5
20260503213010 0 272 0.0 0.0 0.00 0.00 0.00 1016.5
20260503211501 71 266 0.0 2.0 0.00 0.00 0.00 39 1016.7
20260503210059 72 236 0.0 4.0 0.00 0.00 0.00 38 1016.7
20260503204557 72 184 0.0 0.0 0.00 0.00 0.00 39 1016.7
20260503203051 72 324 0.0 0.0 0.00 0.00 0.00 45 1016.8
20260503201547 71 5 0.0 0.0 0.00 0.00 0.00 44 1017.1
20260503200042 72 318 0.0 0.0 0.00 0.00 0.00 43 1017.3
20260503194537 72 223 0.0 0.0 0.00 0.00 0.00 44 1017.7
20260503193040 72 248 0.0 0.0 0.00 0.00 0.00 43 1017.9
20260503191528 70 270 0.0 0.0 0.00 0.00 0.00 47 1018.3
20260503190028 70 204 0.0 0.0 0.00 0.00 0.00 46 1018.6
20260503184525 69 321 0.0 0.0 0.00 0.00 0.00 47 1018.8
20260503183024 70 205 0.0 0.0 0.00 0.00 0.00 49 1018.9
20260503181524 69 173 0.0 0.0 0.00 0.00 0.00 51 1019.1
20260503180005 69 192 0.0 0.0 0.00 0.00 0.00 49 1019.3
20260503174501 67 321 0.0 0.0 0.00 0.00 0.00 53 1019.4
20260503173102 67 222 0.0 0.0 0.00 0.00 0.00 48 1019.5
20260503171552 66 208 0.0 0.0 0.00 0.00 0.00 51 1019.7